CLUSTER II-FM7 (SAMBA)

Last updated on Sat Aug 15 2026 00:03:33 GMT+0000 (Coordinated Universal Time)

1 26410U 00041A 26228.35648488 .00204628 -13535-2 00000+0 0 9995 2 26410 149.5559 61.8704 9119992 279.7536 359.6603 0.44877167 20578
UTC large
Height (km)
Speed (km/s)
/
Latitude / Longitude
Inclination (degrees)
Orbital Period (minutes)
Azimuth
Elevation
Range (km)
Doppler Factor

Next 0 passes for location: London (51.5072 / 0.1276)

No passes found over London.
CLUSTER II-FM7 (SAMBA)